Voltar ao catálogo

STARLINK-37015

AtivoComunicaçõesSSO
NORAD 68825·PAYLOAD·🇺🇸 United States

Lançado Apr 23, 2026 de Vandenberg Space Force Base

Loading…

Próximas Passagens (próximas 24 horas)

TLE

AtualizadoSource: CelesTrak SupGP

Época: Sep 15, 2026, 03:03 UTC

1 68825C 26089Z   26258.12756944 -.00026918  00000+0 -83552-3 0  2586
2 68825  97.2846 104.0330 0002170  90.7788 137.4928 15.33454495    15

Acompanhe STARLINK-37015 em tempo real com AllMySat

Download on the App Store